| time (UTC) | temp C | wind direction | speed KPH | gust KPH | rain 1hr cm | rain 24hr cm | rain mn cm | humidity % | barometer mb |
| 20260507191657 | 23 | 277 | 12.9 | 22.5 | 0.00 | 3.96 | 3.96 | 75 | 1004.5 |
| 20260507191154 | 23 | 295 | 17.7 | 20.9 | 0.00 | 3.96 | 3.96 | 76 | 1004.3 |
| 20260507190651 | 23 | 277 | 11.3 | 24.1 | 0.00 | 3.96 | 3.96 | 77 | 1004.2 |
| 20260507190150 | 23 | 297 | 12.9 | 16.1 | 0.00 | 3.96 | 3.96 | 78 | 1004.4 |
| 20260507185648 | 23 | 278 | 16.1 | 25.7 | 0.00 | 3.96 | 3.96 | 77 | 1004.4 |
| 20260507185144 | 22 | 317 | 8.0 | 14.5 | 0.00 | 3.96 | 3.96 | 78 | 1004.3 |
| 20260507184642 | 22 | 287 | 12.9 | 14.5 | 0.00 | 3.96 | 3.96 | 81 | 1004.6 |
| 20260507184140 | 22 | 279 | 11.3 | 12.9 | 0.00 | 3.96 | 3.96 | 79 | 1004.0 |
| 20260507183636 | 22 | 289 | 12.9 | 17.7 | 0.00 | 3.96 | 3.96 | 81 | 1004.2 |
| 20260507183133 | 22 | 287 | 9.7 | 14.5 | 0.00 | 3.96 | 3.96 | 83 | 1004.3 |
| 20260507182629 | 22 | 282 | 9.7 | 11.3 | 0.00 | 3.96 | 3.96 | 83 | 1004.2 |
| 20260507182126 | 22 | 294 | 11.3 | 11.3 | 0.00 | 3.96 | 3.96 | 83 | 1004.2 |
| 20260507181622 | 22 | 285 | 4.8 | 9.7 | 0.00 | 3.96 | 3.96 | 85 | 1004.5 |
| 20260507181118 | 21 | 281 | 11.3 | 25.7 | 0.00 | 3.96 | 3.96 | 85 | 1004.8 |
| 20260507180615 | 21 | 286 | 11.3 | 20.9 | 0.00 | 3.96 | 3.96 | 85 | 1004.7 |
| 20260507180112 | 21 | 270 | 16.1 | 16.1 | 0.00 | 3.96 | 3.96 | 86 | 1004.8 |
| 20260507175608 | 21 | 285 | 14.5 | 17.7 | 0.00 | 3.96 | 3.96 | 87 | 1004.9 |
| 20260507175106 | 21 | 296 | 8.0 | 9.7 | 0.00 | 3.96 | 3.96 | 88 | 1004.7 |
| 20260507174602 | 21 | 296 | 12.9 | 14.5 | 0.00 | 3.96 | 3.96 | 87 | 1004.8 |
| 20260507174100 | 21 | 285 | 11.3 | 16.1 | 0.00 | 3.96 | 3.96 | 88 | 1004.4 |
| 20260507173557 | 21 | 314 | 6.4 | 8.0 | 0.00 | 3.96 | 3.96 | 90 | 1004.2 |
| 20260507173054 | 20 | 298 | 8.0 | 9.7 | 0.00 | 3.96 | 3.96 | 92 | 1004.1 |
| 20260507172550 | 20 | 308 | 8.0 | 9.7 | 0.00 | 3.96 | 3.96 | 94 | 1004.5 |
| 20260507172047 | 20 | 316 | 6.4 | 9.7 | 0.00 | 3.96 | 3.96 | 95 | 1004.5 |
| 20260507171542 | 20 | 325 | 4.8 | 4.8 | 0.00 | 3.96 | 3.96 | 96 | 1004.5 |
| 20260507171040 | 20 | 296 | 8.0 | 11.3 | 0.00 | 3.96 | 3.96 | 96 | 1004.7 |
| 20260507170536 | 20 | 1 | 3.2 | 4.8 | 0.00 | 3.96 | 3.96 | 97 | 1004.9 |
| 20260507170034 | 20 | 19 | 1.6 | 1.6 | 0.00 | 3.96 | 3.96 | 97 | 1004.7 |
| 20260507165529 | 20 | 325 | 4.8 | 8.0 | 0.00 | 3.96 | 3.96 | 97 | 1004.9 |
| 20260507165026 | 20 | 34 | 1.6 | 4.8 | 0.00 | 3.96 | 3.96 | 97 | 1004.9 |
| 20260507164522 | 20 | 308 | 6.4 | 9.7 | 0.00 | 3.96 | 3.96 | 97 | 1005.1 |
| 20260507164019 | 20 | 357 | 6.4 | 9.7 | 0.00 | 3.96 | 3.96 | 97 | 1005.4 |
| 20260507163516 | 20 | 321 | 4.8 | 8.0 | 0.00 | 3.96 | 3.96 | 97 | 1005.5 |
| 20260507163015 | 20 | 345 | 4.8 | 9.7 | 0.00 | 3.96 | 3.96 | 98 | 1005.5 |
| 20260507162509 | 20 | 335 | 4.8 | 9.7 | 0.00 | 3.96 | 3.96 | 98 | 1005.2 |
| 20260507162006 | 20 | 3 | 3.2 | 4.8 | 0.00 | 3.96 | 3.96 | 98 | 1005.3 |
| 20260507161502 | 20 | 24 | 1.6 | 3.2 | 0.00 | 3.96 | 3.96 | 98 | 1005.4 |
| 20260507160959 | 20 | 300 | 4.8 | 4.8 | 0.00 | 3.96 | 3.96 | 98 | 1005.5 |
| 20260507160455 | 20 | 14 | 0.0 | 1.6 | 0.00 | 3.96 | 3.96 | 98 | 1005.3 |
| 20260507155951 | 19 | 29 | 1.6 | 1.6 | 0.13 | 3.96 | 3.96 | 98 | 1005.6 |
| 20260507155447 | 19 | 27 | 0.0 | 1.6 | 0.18 | 3.94 | 3.94 | 98 | 1005.7 |
| 20260507154944 | 19 | 35 | 1.6 | 1.6 | 0.18 | 3.94 | 3.94 | 98 | 1005.8 |
| 20260507154441 | 19 | 43 | 0.0 | 0.0 | 0.00 | 3.91 | 3.91 | 98 | 1005.5 |
| 20260507153938 | 19 | 5 | 3.2 | 4.8 | 0.00 | 3.91 | 3.91 | 98 | 1005.9 |
| 20260507153435 | 19 | 17 | 1.6 | 1.6 | 0.00 | 3.91 | 3.91 | 98 | 1005.7 |
| 20260507152931 | 19 | 39 | 0.0 | 0.0 | 0.00 | 3.91 | 3.91 | 98 | 1005.1 |
| 20260507152427 | 19 | 46 | 0.0 | 1.6 | 0.00 | 3.91 | 3.91 | 98 | 1004.7 |
| 20260507151923 | 19 | 44 | 0.0 | 1.6 | 0.00 | 3.91 | 3.91 | 98 | 1004.8 |
| 20260507151420 | 18 | 50 | 0.0 | 1.6 | 0.00 | 3.91 | 3.91 | 98 | 1005.1 |
| 20260507150917 | 18 | 44 | 0.0 | 0.0 | 0.00 | 3.91 | 3.91 | 98 | 1005.5 |
| 20260507150414 | 18 | 45 | 0.0 | 0.0 | 0.00 | 3.91 | 3.91 | 98 | 1005.5 |
| 20260507145910 | 18 | 45 | 0.0 | 0.0 | 0.00 | 3.91 | 3.91 | 98 | 1005.5 |
| 20260507145406 | 18 | 45 | 0.0 | 0.0 | 0.13 | 3.91 | 3.91 | 98 | 1005.6 |
| 20260507144903 | 18 | 50 | 0.0 | 1.6 | 0.00 | 3.89 | 3.89 | 98 | 1005.5 |
| 20260507144400 | 18 | 50 | 0.0 | 1.6 | 0.18 | 3.89 | 3.89 | 98 | 1005.4 |
| 20260507143857 | 18 | 48 | 0.0 | 0.0 | 0.18 | 3.89 | 3.89 | 98 | 1005.5 |
| 20260507143354 | 18 | 37 | 0.0 | 0.0 | 0.00 | 3.86 | 3.86 | 98 | 1006.1 |
| 20260507142851 | 18 | 44 | 0.0 | 1.6 | 0.43 | 3.86 | 3.86 | 97 | 1006.1 |
| 20260507142347 | 18 | 40 | 1.6 | 3.2 | 1.27 | 3.84 | 3.84 | 97 | 1006.3 |
| 20260507141844 | 18 | 72 | 4.8 | 4.8 | 2.29 | 3.76 | 3.76 | 97 | 1006.4 |
| 20260507141340 | 19 | 26 | 1.6 | 3.2 | 4.14 | 3.61 | 3.61 | 98 | 1006.0 |
| 20260507140837 | 19 | 32 | 1.6 | 3.2 | 4.85 | 3.33 | 3.33 | 98 | 1006.1 |
| 20260507140334 | 19 | 29 | 1.6 | 1.6 | 3.35 | 2.84 | 2.84 | 98 | 1006.0 |
| 20260507135832 | 19 | 31 | 0.0 | 1.6 | 3.17 | 2.46 | 2.46 | 97 | 1005.5 |
| 20260507135328 | 19 | 33 | 0.0 | 0.0 | 2.29 | 2.21 | 2.21 | 98 | 1005.5 |
| 20260507134826 | 19 | 21 | 0.0 | 1.6 | 0.79 | 1.93 | 1.93 | 97 | 1005.5 |
| 20260507134321 | 19 | 25 | 1.6 | 1.6 | 0.18 | 1.83 | 1.83 | 98 | 1005.5 |
| 20260507133817 | 19 | 25 | 1.6 | 3.2 | 0.00 | 1.80 | 1.80 | 97 | 1005.4 |
| 20260507133313 | 19 | 303 | 4.8 | 9.7 | 0.00 | 1.80 | 1.80 | 98 | 1005.5 |
| 20260507132812 | 19 | 324 | 4.8 | 4.8 | 0.00 | 1.80 | 1.80 | 98 | 1005.2 |
| 20260507132308 | 19 | 26 | 0.0 | 3.2 | 0.00 | 1.80 | 1.80 | 98 | 1005.3 |
| 20260507131805 | 19 | 49 | 0.0 | 1.6 | 0.00 | 1.80 | 1.80 | 98 | 1005.1 |
| 20260507131302 | 19 | 48 | 0.0 | 0.0 | 0.00 | 1.80 | 1.80 | 97 | 1005.6 |
| 20260507130758 | 19 | 49 | 1.6 | 1.6 | 1.98 | 1.80 | 1.80 | 97 | 1005.3 |
| 20260507130256 | 19 | 45 | 0.0 | 0.0 | 1.98 | 1.80 | 1.80 | 97 | 1005.5 |
| 20260507125755 | 19 | 45 | 0.0 | 0.0 | 0.00 | 1.47 | 1.47 | 97 | 1005.4 |
| 20260507125252 | 19 | 45 | 0.0 | 0.0 | 0.13 | 1.47 | 1.47 | 97 | 1005.5 |
| 20260507124749 | 19 | 45 | 0.0 | 0.0 | 0.30 | 1.47 | 1.47 | 97 | 1005.7 |
| 20260507124245 | 19 | 44 | 0.0 | 0.0 | 0.18 | 1.45 | 1.45 | 97 | 1006.0 |
| 20260507123744 | 19 | 45 | 0.0 | 0.0 | 0.00 | 1.42 | 1.42 | 97 | 1005.7 |
| 20260507123241 | 19 | 45 | 0.0 | 0.0 | 0.00 | 1.42 | 1.42 | 97 | 1005.7 |
| 20260507122736 | 19 | 44 | 0.0 | 0.0 | 0.00 | 1.42 | 1.42 | 97 | 1005.6 |
| 20260507122232 | 19 | 44 | 0.0 | 0.0 | 0.00 | 1.42 | 1.42 | 97 | 1005.7 |
| 20260507121728 | 19 | 44 | 0.0 | 1.6 | 0.00 | 1.42 | 1.42 | 97 | 1004.9 |
| 20260507121224 | 19 | 40 | 0.0 | 0.0 | 0.00 | 1.42 | 1.42 | 97 | 1005.0 |
| 20260507120720 | 19 | 40 | 0.0 | 0.0 | 0.00 | 1.42 | 1.42 | 97 | 1004.9 |
| 20260507120218 | 19 | 40 | 0.0 | 0.0 | 0.00 | 1.42 | 1.42 | 97 | 1004.9 |
| 20260507115714 | 19 | 40 | 0.0 | 0.0 | 0.00 | 1.42 | 1.42 | 97 | 1004.8 |
| 20260507115209 | 18 | 39 | 0.0 | 0.0 | 0.00 | 1.42 | 1.42 | 97 | 1004.9 |
| 20260507114705 | 18 | 40 | 0.0 | 0.0 | 0.00 | 1.42 | 1.42 | 97 | 1005.0 |
| 20260507114203 | 18 | 44 | 0.0 | 0.0 | 0.00 | 1.42 | 1.42 | 97 | 1004.9 |
| 20260507113700 | 18 | 33 | 0.0 | 1.6 | 0.00 | 1.42 | 1.42 | 97 | 1005.1 |
| 20260507113157 | 18 | 34 | 0.0 | 0.0 | 0.13 | 1.42 | 1.42 | 97 | 1004.7 |
| 20260507112655 | 18 | 54 | 0.0 | 1.6 | 0.13 | 1.42 | 1.42 | 97 | 1004.7 |
| 20260507112151 | 18 | 47 | 0.0 | 1.6 | 0.00 | 1.40 | 1.40 | 97 | 1005.2 |
| 20260507111649 | 18 | 347 | 3.2 | 4.8 | 0.00 | 1.40 | 1.40 | 97 | 1005.4 |
| 20260507111145 | 18 | 37 | 0.0 | 1.6 | 0.18 | 1.40 | 1.40 | 97 | 1005.8 |
| 20260507110641 | 18 | 37 | 1.6 | 3.2 | 0.30 | 1.40 | 1.40 | 97 | 1006.0 |
| 20260507110138 | 19 | 1 | 3.2 | 4.8 | 0.13 | 1.37 | 1.37 | 97 | 1006.1 |
| 20260507105635 | 19 | 291 | 6.4 | 9.7 | 0.61 | 1.35 | 1.35 | 97 | 1006.2 |
| 20260507105131 | 19 | 299 | 4.8 | 4.8 | 1.07 | 1.35 | 1.35 | 97 | 1006.0 |
| 20260507104629 | 19 | 10 | 1.6 | 3.2 | 1.19 | 1.22 | 1.22 | 97 | 1006.1 |
| 20260507104125 | 19 | 300 | 8.0 | 9.7 | 2.29 | 1.17 | 1.17 | 97 | 1006.8 |
| 20260507103621 | 19 | 299 | 6.4 | 12.9 | 1.68 | 1.02 | 1.02 | 97 | 1006.8 |
| 20260507103118 | 19 | 50 | 3.2 | 4.8 | 0.71 | 0.76 | 0.76 | 97 | 1006.5 |
| 20260507102614 | 19 | 318 | 3.2 | 4.8 | 1.27 | 0.74 | 0.74 | 97 | 1006.5 |
| 20260507102110 | 19 | 59 | 1.6 | 1.6 | 0.89 | 0.61 | 0.61 | 97 | 1006.5 |
| 20260507101607 | 19 | 23 | 3.2 | 4.8 | 0.61 | 0.51 | 0.51 | 97 | 1006.4 |
| 20260507101102 | 19 | 30 | 0.0 | 0.0 | 0.79 | 0.46 | 0.46 | 97 | 1006.3 |
| 20260507100600 | 19 | 35 | 0.0 | 0.0 | 0.43 | 0.38 | 0.38 | 97 | 1006.4 |
| 20260507100058 | 19 | 41 | 0.0 | 0.0 | 0.00 | 0.30 | 0.30 | 97 | 1006.0 |
| 20260507095556 | 19 | 41 | 0.0 | 0.0 | 0.00 | 0.30 | 0.30 | 97 | 1006.1 |
| 20260507095052 | 19 | 41 | 0.0 | 0.0 | 0.00 | 0.30 | 0.30 | 97 | 1006.3 |
| 20260507094548 | 19 | 41 | 0.0 | 0.0 | 0.00 | 0.30 | 0.30 | 97 | 1006.3 |
| 20260507094046 | 19 | 40 | 0.0 | 0.0 | 0.00 | 0.30 | 0.30 | 97 | 1006.3 |
| 20260507093543 | 19 | 41 | 0.0 | 0.0 | 0.00 | 0.30 | 0.30 | 97 | 1006.0 |
| 20260507093042 | 18 | 40 | 0.0 | 0.0 | 0.00 | 0.30 | 0.30 | 97 | 1006.2 |
| 20260507092537 | 19 | 40 | 0.0 | 0.0 | 0.00 | 0.30 | 0.30 | 97 | 1006.5 |
| 20260507092034 | 19 | 40 | 0.0 | 0.0 | 0.00 | 0.30 | 0.30 | 97 | 1006.8 |
| 20260507091531 | 19 | 40 | 0.0 | 0.0 | 0.00 | 0.30 | 0.30 | 97 | 1006.7 |
| 20260507091027 | 18 | 30 | 0.0 | 0.0 | 0.00 | 0.30 | 0.30 | 97 | 1006.7 |
| 20260507090523 | 19 | 30 | 0.0 | 0.0 | 0.18 | 0.30 | 0.30 | 97 | 1006.5 |
| 20260507090020 | 19 | 30 | 0.0 | 0.0 | 0.18 | 0.30 | 0.30 | 97 | 1006.5 |
| 20260507085517 | 19 | 28 | 0.0 | 1.6 | 0.00 | 0.28 | 0.28 | 97 | 1006.7 |
| 20260507085014 | 19 | 25 | 1.6 | 1.6 | 0.00 | 0.28 | 0.28 | 97 | 1006.9 |
| 20260507084510 | 19 | 12 | 1.6 | 3.2 | 0.00 | 0.28 | 0.28 | 97 | 1006.8 |
| 20260507084008 | 19 | 16 | 3.2 | 3.2 | 0.00 | 0.28 | 0.28 | 97 | 1006.8 |
| 20260507083504 | 19 | 21 | 1.6 | 3.2 | 0.18 | 0.28 | 0.28 | 97 | 1006.5 |
| 20260507083001 | 19 | 328 | 4.8 | 4.8 | 0.00 | 0.25 | 0.25 | 97 | 1006.7 |
| 20260507082457 | 19 | 15 | 1.6 | 3.2 | 0.00 | 0.25 | 0.25 | 97 | 1006.4 |
| 20260507081953 | 19 | 8 | 1.6 | 3.2 | 0.00 | 0.25 | 0.25 | 97 | 1006.5 |
| 20260507081449 | 19 | 12 | 3.2 | 3.2 | 0.00 | 0.25 | 0.25 | 97 | 1006.4 |
| 20260507080947 | 19 | 353 | 3.2 | 3.2 | 0.00 | 0.25 | 0.25 | 97 | 1006.3 |
| 20260507080443 | 19 | 16 | 1.6 | 1.6 | 0.00 | 0.25 | 0.25 | 97 | 1006.2 |
| 20260507075938 | 19 | 351 | 3.2 | 3.2 | 0.00 | 0.25 | 0.25 | 97 | 1006.4 |
| 20260507075435 | 19 | 33 | 0.0 | 3.2 | 0.00 | 0.25 | 0.25 | 97 | 1006.4 |
| 20260507074931 | 19 | 32 | 1.6 | 3.2 | 0.00 | 0.25 | 0.25 | 97 | 1006.6 |
| 20260507074428 | 19 | 339 | 3.2 | 4.8 | 0.00 | 0.25 | 0.25 | 97 | 1006.5 |
| 20260507073926 | 18 | 9 | 1.6 | 3.2 | 0.00 | 0.25 | 0.25 | 97 | 1006.6 |
| 20260507073422 | 19 | 35 | 0.0 | 4.8 | 0.00 | 0.25 | 0.25 | 97 | 1006.6 |
| 20260507072919 | 18 | 43 | 0.0 | 1.6 | 0.00 | 0.25 | 0.25 | 97 | 1006.6 |
| 20260507072416 | 18 | 32 | 0.0 | 1.6 | 0.00 | 0.25 | 0.25 | 97 | 1006.6 |
| 20260507071914 | 18 | 33 | 0.0 | 0.0 | 0.00 | 0.25 | 0.25 | 97 | 1006.4 |
| 20260507071411 | 18 | 34 | 0.0 | 0.0 | 0.00 | 0.25 | 0.25 | 97 | 1006.5 |
| 20260507070907 | 18 | 34 | 0.0 | 0.0 | 0.00 | 0.25 | 0.25 | 97 | 1006.7 |
| 20260507070405 | 19 | 34 | 0.0 | 0.0 | 0.00 | 0.25 | 0.25 | 97 | 1006.6 |
| 20260507065901 | 19 | 34 | 0.0 | 0.0 | 0.00 | 0.25 | 0.25 | 97 | 1006.6 |
| 20260507065358 | 19 | 34 | 0.0 | 0.0 | 0.00 | 0.25 | 0.25 | 97 | 1006.7 |
| 20260507064855 | 19 | 17 | 1.6 | 1.6 | 0.00 | 0.25 | 0.25 | 97 | 1006.8 |
| 20260507064353 | 19 | 24 | 1.6 | 1.6 | 0.00 | 0.25 | 0.25 | 97 | 1006.8 |
| 20260507063851 | 19 | 18 | 1.6 | 3.2 | 0.00 | 0.25 | 0.25 | 97 | 1007.1 |
| 20260507063348 | 19 | 28 | 0.0 | 0.0 | 0.00 | 0.25 | 0.25 | 97 | 1006.9 |
| 20260507062844 | 19 | 22 | 1.6 | 1.6 | 0.00 | 0.25 | 0.25 | 97 | 1006.8 |
| 20260507062341 | 19 | 40 | 0.0 | 0.0 | 0.00 | 0.25 | 0.25 | 97 | 1006.7 |
| 20260507061839 | 19 | 41 | 0.0 | 0.0 | 0.00 | 0.25 | 0.25 | 97 | 1006.7 |
| 20260507061337 | 19 | 41 | 0.0 | 0.0 | 0.00 | 0.25 | 0.25 | 97 | 1006.8 |
| 20260507060835 | 19 | 41 | 0.0 | 0.0 | 0.00 | 0.25 | 0.25 | 97 | 1006.7 |
| 20260507060332 | 19 | 41 | 0.0 | 0.0 | 0.00 | 0.25 | 0.25 | 97 | 1006.8 |
| 20260507055828 | 19 | 41 | 0.0 | 0.0 | 0.00 | 0.25 | 0.25 | 96 | 1006.6 |
| 20260507055323 | 19 | 41 | 0.0 | 0.0 | 0.00 | 0.25 | 0.25 | 96 | 1006.4 |
| 20260507054820 | 19 | 41 | 0.0 | 0.0 | 0.00 | 0.25 | 0.25 | 96 | 1006.7 |
| 20260507054316 | 19 | 41 | 0.0 | 0.0 | 0.00 | 0.25 | 0.25 | 96 | 1006.8 |
| 20260507053814 | 19 | 41 | 0.0 | 0.0 | 0.00 | 0.25 | 0.25 | 96 | 1006.8 |
| 20260507053312 | 19 | 43 | 0.0 | 0.0 | 0.00 | 0.25 | 0.25 | 96 | 1006.8 |
| 20260507052811 | 19 | 44 | 0.0 | 1.6 | 0.00 | 0.25 | 0.25 | 96 | 1006.6 |
| 20260507052307 | 19 | 42 | 0.0 | 1.6 | 0.00 | 0.25 | 0.25 | 96 | 1006.9 |
| 20260507051805 | 19 | 76 | 0.0 | 3.2 | 0.00 | 0.25 | 0.25 | 96 | 1006.8 |
| 20260507051302 | 19 | 54 | 0.0 | 1.6 | 0.00 | 0.25 | 0.25 | 96 | 1006.7 |
| 20260507050759 | 20 | 61 | 0.0 | 1.6 | 0.00 | 0.25 | 0.25 | 96 | 1007.0 |
| 20260507050255 | 20 | 61 | 0.0 | 1.6 | 0.00 | 0.25 | 0.25 | 96 | 1007.2 |
| 20260507045752 | 20 | 61 | 0.0 | 1.6 | 0.00 | 0.25 | 0.25 | 95 | 1007.5 |
| 20260507045249 | 20 | 61 | 0.0 | 1.6 | 0.00 | 0.25 | 0.25 | 95 | 1007.1 |
| 20260507044746 | 20 | 61 | 0.0 | 1.6 | 0.00 | 0.25 | 0.25 | 95 | 1007.3 |
| 20260507044242 | 20 | 61 | 0.0 | 1.6 | 0.00 | 0.25 | 0.25 | 95 | 1007.3 |
| 20260507043738 | 20 | 61 | 0.0 | 3.2 | 0.00 | 0.25 | 0.25 | 95 | 1007.5 |
| 20260507043235 | 20 | 61 | 1.6 | 1.6 | 0.00 | 0.25 | 0.25 | 95 | 1007.5 |
| 20260507042731 | 20 | 62 | 1.6 | 3.2 | 0.00 | 0.25 | 0.25 | 94 | 1007.5 |
| 20260507042226 | 20 | 68 | 1.6 | 3.2 | 0.30 | 0.25 | 0.25 | 94 | 1007.9 |
| 20260507041724 | 20 | 79 | 1.6 | 3.2 | 0.43 | 0.25 | 0.25 | 94 | 1008.1 |
| 20260507041220 | 20 | 52 | 0.0 | 0.0 | 1.02 | 0.20 | 0.20 | 94 | 1008.3 |
| 20260507040717 | 20 | 53 | 0.0 | 0.0 | 1.37 | 0.18 | 0.18 | 93 | 1008.5 |
| 20260507040213 | 20 | 58 | 0.0 | 0.0 | 0.79 | 0.03 | 0.03 | 93 | 1008.7 |
| 20260507035709 | 20 | 58 | 0.0 | 0.0 | 0.48 | 1.42 | 1.42 | 93 | 1008.5 |
| 20260507035205 | 20 | 59 | 1.6 | 1.6 | 0.30 | 1.37 | 1.37 | 93 | 1008.5 |
| 20260507034702 | 20 | 56 | 0.0 | 0.0 | 0.43 | 1.35 | 1.35 | 92 | 1008.7 |
| 20260507034200 | 20 | 56 | 0.0 | 0.0 | 0.48 | 1.32 | 1.32 | 92 | 1009.2 |
| 20260507033658 | 20 | 58 | 0.0 | 1.6 | 0.30 | 1.27 | 1.27 | 92 | 1008.9 |
| 20260507033155 | 20 | 57 | 0.0 | 0.0 | 0.43 | 1.24 | 1.24 | 91 | 1008.9 |
| 20260507032652 | 20 | 57 | 0.0 | 1.6 | 0.61 | 1.22 | 1.22 | 91 | 1008.8 |
| 20260507032148 | 20 | 56 | 0.0 | 0.0 | 0.66 | 1.17 | 1.17 | 91 | 1009.2 |
| 20260507031645 | 20 | 55 | 0.0 | 0.0 | 0.48 | 1.12 | 1.12 | 91 | 1009.4 |
| 20260507031141 | 20 | 58 | 0.0 | 1.6 | 0.61 | 1.07 | 1.07 | 90 | 1009.6 |
| 20260507030638 | 20 | 37 | 0.0 | 0.0 | 0.89 | 1.04 | 1.04 | 90 | 1010.3 |
| 20260507030136 | 20 | 355 | 3.2 | 3.2 | 0.71 | 0.97 | 0.97 | 90 | 1010.5 |
| 20260507025633 | 20 | 33 | 0.0 | 0.0 | 0.97 | 0.89 | 0.89 | 90 | 1010.5 |
| 20260507025130 | 20 | 40 | 0.0 | 0.0 | 0.79 | 0.84 | 0.84 | 89 | 1009.8 |
| 20260507024628 | 20 | 33 | 0.0 | 3.2 | 0.61 | 0.74 | 0.74 | 88 | 1010.2 |
| 20260507024125 | 20 | 44 | 0.0 | 3.2 | 0.79 | 0.71 | 0.71 | 88 | 1010.1 |
| 20260507023620 | 20 | 285 | 6.4 | 11.3 | 0.89 | 0.64 | 0.64 | 86 | 1010.1 |
| 20260507023118 | 20 | 291 | 9.7 | 12.9 | 2.59 | 0.58 | 0.58 | 84 | 1010.0 |
| 20260507022615 | 21 | 257 | 12.9 | 16.1 | 2.46 | 0.48 | 0.48 | 82 | 1010.1 |
| 20260507022110 | 22 | 338 | 4.8 | 16.1 | 0.79 | 0.15 | 0.15 | 77 | 1010.0 |
| 20260507021607 | 23 | 298 | 8.0 | 8.0 | 0.43 | 0.08 | 0.08 | 72 | 1008.7 |
| 20260507021103 | 25 | 25 | 1.6 | 1.6 | 0.13 | 0.03 | 0.03 | 66 | 1007.6 |
| 20260507020601 | 26 | 24 | 1.6 | 1.6 | 0.00 | 0.00 | 0.00 | 58 | 1007.4 |
| 20260507020057 | 26 | 21 | 0.0 | 1.6 | 0.00 | 0.00 | 0.00 | 56 | 1007.1 |
| 20260507015556 | 26 | 10 | 1.6 | 1.6 | 0.00 | 0.00 | 0.00 | 54 | 1007.1 |
| 20260507015053 | 26 | 14 | 1.6 | 1.6 | 0.00 | 0.00 | 0.00 | 54 | 1007.1 |
| 20260507014549 | 26 | 11 | 1.6 | 1.6 | 0.00 | 0.00 | 0.00 | 53 | 1007.0 |
| 20260507014045 | 26 | 11 | 1.6 | 3.2 | 0.00 | 0.00 | 0.00 | 54 | 1007.0 |
| 20260507013542 | 26 | 30 | 0.0 | 1.6 | 0.00 | 0.00 | 0.00 | 53 | 1006.6 |
| 20260507013039 | 26 | 28 | 1.6 | 3.2 | 0.00 | 0.00 | 0.00 | 54 | 1006.7 |
| 20260507012536 | 26 | 29 | 1.6 | 1.6 | 0.00 | 0.00 | 0.00 | 53 | 1006.5 |
| 20260507012032 | 26 | 30 | 0.0 | 0.0 | 0.00 | 0.00 | 0.00 | 53 | 1006.5 |
| 20260507011530 | 26 | 30 | 0.0 | 1.6 | 0.00 | 0.00 | 0.00 | 53 | 1006.4 |
| 20260507011026 | 26 | 30 | 0.0 | 1.6 | 0.00 | 0.00 | 0.00 | 53 | 1006.6 |
| 20260507010520 | 27 | 45 | 1.6 | 3.2 | 0.00 | 0.00 | 0.00 | 53 | 1006.5 |
| 20260507010017 | 27 | 47 | 1.6 | 3.2 | 0.00 | 0.00 | 0.00 | 53 | 1006.2 |
| 20260507005515 | 27 | 44 | 1.6 | 1.6 | 0.00 | 0.00 | 0.00 | 52 | 1006.2 |
| 20260507005011 | 27 | 45 | 0.0 | 1.6 | 0.00 | 0.00 | 0.00 | 52 | 1006.4 |
| 20260507004508 | 27 | 48 | 0.0 | 1.6 | 0.00 | 0.00 | 0.00 | 52 | 1006.4 |
| 20260507004006 | 27 | 49 | 1.6 | 1.6 | 0.00 | 0.00 | 0.00 | 52 | 1006.5 |
| 20260507003501 | 27 | 38 | 0.0 | 1.6 | 0.00 | 0.00 | 0.00 | 51 | 1006.5 |
| 20260507002955 | 27 | 26 | 0.0 | 0.0 | 0.00 | 0.00 | 0.00 | 52 | 1006.6 |
| 20260507002453 | 27 | 21 | 0.0 | 1.6 | 0.00 | 0.00 | 0.00 | 51 | 1006.6 |
| 20260507001949 | 27 | 23 | 1.6 | 1.6 | 0.00 | 0.00 | 0.00 | 51 | 1006.8 |
| 20260507001446 | 27 | 33 | 1.6 | 1.6 | 0.00 | 0.00 | 0.00 | 50 | 1006.7 |
| 20260507000943 | 27 | 33 | 1.6 | 3.2 | 0.00 | 0.00 | 0.00 | 50 | 1006.8 |
| 20260507000439 | 27 | 16 | 1.6 | 3.2 | 0.00 | 0.00 | 0.00 | 50 | 1006.5 |
| 20260506235934 | 28 | 47 | 1.6 | 3.2 | 0.00 | 0.00 | 0.00 | 49 | 1006.5 |
| 20260506235432 | 28 | 59 | 0.0 | 1.6 | 0.00 | 0.00 | 0.00 | 49 | 1006.4 |
| 20260506234927 | 28 | 40 | 0.0 | 1.6 | 0.00 | 0.00 | 0.00 | 49 | 1006.5 |
| 20260506234426 | 28 | 30 | 1.6 | 3.2 | 0.00 | 0.00 | 0.00 | 50 | 1006.6 |
| 20260506233923 | 28 | 53 | 0.0 | 1.6 | 0.00 | 0.00 | 0.00 | 48 | 1006.4 |
| 20260506233419 | 28 | 334 | 1.6 | 4.8 | 0.00 | 0.00 | 0.00 | 48 | 1006.7 |
| 20260506232916 | 28 | 21 | 3.2 | 3.2 | 0.00 | 0.00 | 0.00 | 48 | 1006.7 |
| 20260506232412 | 28 | 288 | 4.8 | 8.0 | 0.00 | 0.00 | 0.00 | 47 | 1006.9 |
| 20260506231908 | 28 | 310 | 6.4 | 8.0 | 0.00 | 0.00 | 0.00 | 48 | 1006.8 |
| 20260506231406 | 29 | 295 | 4.8 | 8.0 | 0.00 | 0.00 | 0.00 | 47 | 1006.6 |
| 20260506230903 | 29 | 7 | 3.2 | 4.8 | 0.00 | 0.00 | 0.00 | 47 | 1006.7 |
| 20260506230400 | 29 | 117 | 3.2 | 3.2 | 0.00 | 0.00 | 0.00 | 46 | 1006.5 |
| 20260506225856 | 29 | 277 | 8.0 | 9.7 | 0.00 | 0.00 | 0.00 | 46 | 1006.4 |
| 20260506225353 | 29 | 269 | 4.8 | 8.0 | 0.00 | 0.00 | 0.00 | 46 | 1006.6 |
| 20260506224850 | 29 | 337 | 4.8 | 9.7 | 0.00 | 0.00 | 0.00 | 46 | 1006.4 |
| 20260506224348 | 29 | 301 | 8.0 | 12.9 | 0.00 | 0.00 | 0.00 | 46 | 1006.8 |
| 20260506223844 | 29 | 323 | 4.8 | 4.8 | 0.00 | 0.00 | 0.00 | 46 | 1006.5 |
| 20260506223339 | 29 | 314 | 9.7 | 12.9 | 0.00 | 0.00 | 0.00 | 46 | 1006.6 |
| 20260506222836 | 29 | 312 | 6.4 | 8.0 | 0.00 | 0.00 | 0.00 | 46 | 1006.6 |
| 20260506222331 | 30 | 305 | 8.0 | 12.9 | 0.00 | 0.00 | 0.00 | 46 | 1006.6 |
| 20260506221830 | 29 | 251 | 6.4 | 8.0 | 0.00 | 0.00 | 0.00 | 47 | 1006.7 |
| 20260506221327 | 29 | 295 | 6.4 | 9.7 | 0.00 | 0.00 | 0.00 | 45 | 1006.7 |
| 20260506220825 | 29 | 321 | 4.8 | 8.0 | 0.00 | 0.00 | 0.00 | 46 | 1006.8 |
| 20260506220320 | 29 | 343 | 4.8 | 8.0 | 0.00 | 0.00 | 0.00 | 47 | 1006.9 |
| 20260506215817 | 28 | 296 | 4.8 | 4.8 | 0.00 | 0.00 | 0.00 | 47 | 1006.8 |
| 20260506215312 | 28 | 300 | 4.8 | 9.7 | 0.00 | 0.00 | 0.00 | 47 | 1006.9 |
| 20260506214808 | 28 | 248 | 9.7 | 9.7 | 0.00 | 0.00 | 0.00 | 47 | 1007.0 |
| 20260506214305 | 29 | 286 | 8.0 | 14.5 | 0.00 | 0.00 | 0.00 | 46 | 1006.7 |
| 20260506213804 | 29 | 268 | 12.9 | 22.5 | 0.00 | 0.00 | 0.00 | 46 | 1007.0 |
| 20260506213300 | 28 | 285 | 9.7 | 11.3 | 0.00 | 0.00 | 0.00 | 47 | 1006.9 |
| 20260506212758 | 29 | 290 | 9.7 | 14.5 | 0.00 | 0.00 | 0.00 | 47 | 1006.9 |
| 20260506212253 | 29 | 265 | 11.3 | 12.9 | 0.00 | 0.00 | 0.00 | 46 | 1007.2 |
| 20260506211748 | 29 | 224 | 8.0 | 11.3 | 0.00 | 0.00 | 0.00 | 44 | 1007.1 |
| 20260506211245 | 29 | 289 | 6.4 | 16.1 | 0.00 | 0.00 | 0.00 | 46 | 1006.9 |
| 20260506210742 | 29 | 277 | 11.3 | 12.9 | 0.00 | 0.00 | 0.00 | 45 | 1007.2 |
| 20260506210239 | 29 | 282 | 11.3 | 17.7 | 0.00 | 0.00 | 0.00 | 46 | 1007.3 |
| 20260506205736 | 29 | 305 | 9.7 | 12.9 | 0.00 | 0.00 | 0.00 | 45 | 1007.1 |
| 20260506205232 | 28 | 278 | 11.3 | 29.0 | 0.00 | 0.00 | 0.00 | 46 | 1007.1 |
| 20260506204729 | 29 | 271 | 19.3 | 25.7 | 0.00 | 0.00 | 0.00 | 46 | 1007.3 |
| 20260506204226 | 30 | 306 | 11.3 | 16.1 | 0.00 | 0.00 | 0.00 | 47 | 1007.2 |
| 20260506203724 | 29 | 33 | 4.8 | 4.8 | 0.00 | 0.00 | 0.00 | 47 | 1007.1 |
| 20260506203221 | 29 | 344 | 4.8 | 11.3 | 0.00 | 0.00 | 0.00 | 48 | 1007.1 |
| 20260506202719 | 29 | 307 | 6.4 | 11.3 | 0.00 | 0.00 | 0.00 | 49 | 1007.6 |
| 20260506202215 | 28 | 275 | 6.4 | 9.7 | 0.00 | 0.00 | 0.00 | 50 | 1007.4 |
| 20260506201712 | 28 | 301 | 6.4 | 11.3 | 0.00 | 0.00 | 0.00 | 50 | 1007.8 |
| 20260506201209 | 28 | 26 | 6.4 | 14.5 | 0.00 | 0.00 | 0.00 | 51 | 1007.9 |
| 20260506200706 | 28 | 56 | 1.6 | 3.2 | 0.00 | 0.00 | 0.00 | 49 | 1007.8 |
| 20260506200203 | 28 | 293 | 6.4 | 22.5 | 0.00 | 0.00 | 0.00 | 50 | 1007.7 |
| 20260506195659 | 28 | 277 | 8.0 | 12.9 | 0.00 | 0.00 | 0.00 | 50 | 1007.7 |
| 20260506195155 | 28 | 272 | 4.8 | 17.7 | 0.00 | 0.00 | 0.00 | 50 | 1007.8 |
| 20260506194653 | 28 | 140 | 4.8 | 9.7 | 0.00 | 0.00 | 0.00 | 48 | 1007.9 |
| 20260506194149 | 28 | 287 | 8.0 | 12.9 | 0.00 | 0.00 | 0.00 | 50 | 1008.3 |
| 20260506193647 | 27 | 289 | 8.0 | 11.3 | 0.00 | 0.00 | 0.00 | 49 | 1008.5 |
| 20260506193143 | 27 | 291 | 6.4 | 12.9 | 0.00 | 0.00 | 0.00 | 50 | 1008.7 |
| 20260506192640 | 27 | 284 | 8.0 | 12.9 | 0.00 | 0.00 | 0.00 | 50 | 1009.0 |
| 20260506192136 | 27 | 274 | 12.9 | 16.1 | 0.00 | 0.00 | 0.00 | 50 | 1008.6 |